Theta_e
329 330 332 331 332 330 329 330 329 329 330 328 327 326 331 338 331 326 341 350 337 335 339 336 338 342 341 341 337 334 335 334 333 334 335 334 337 339 338 339 344 345 345 347 347 345 345 346 345 345 344 343 341 340 337 334 333 338 337 333 336 342 342 339 337 337 335 335 335 335 335 334 333 332 333 334 334 333 334 334 334 333 332 331 329 328 327
327 330 330 331 331 330 329 330 331 330 330 329 329 329 329 335 334 334 344 348 340 334 336 336 336 336 335 334 335 333 335 334 333 333 334 334 334 337 340 341 344 347 346 346 346 345 344 346 345 345 343 342 340 339 335 332 333 335 333 329 333 341 342 338 336 335 333 332 334 334 334 333 332 333 334 334 334 333 334 335 334 333 331 330 329 328 328
325 329 329 329 330 329 328 329 331 331 331 329 330 330 329 333 333 333 342 344 341 337 339 340 335 334 335 334 335 336 335 334 333 332 333 333 333 334 339 343 343 345 347 346 345 345 345 345 345 345 343 342 340 338 334 333 334 333 331 331 334 339 340 337 335 335 333 332 333 334 333 332 332 333 333 333 333 333 334 334 334 332 330 329 329 327 327
320 327 328 327 330 328 324 325 329 329 329 328 329 332 332 331 334 336 335 334 336 337 339 339 335 335 338 337 337 338 336 335 335 335 335 335 336 335 338 342 342 341 344 346 346 345 345 345 345 344 343 342 339 338 336 336 335 333 333 335 337 339 339 336 336 336 334 334 335 334 333 332 332 331 331 332 333 333 333 333 333 331 329 328 328 326 326
319 325 328 327 326 323 321 324 329 329 330 331 330 331 334 333 336 335 329 328 336 341 340 337 335 336 337 339 337 335 335 336 337 337 337 337 337 337 338 340 342 342 344 346 346 347 345 346 346 344 344 343 340 339 338 338 337 334 335 336 337 338 338 336 336 335 334 335 335 333 333 332 331 331 331 332 333 332 333 333 332 330 328 327 327 326 326
320 324 327 326 324 319 321 328 332 332 332 331 330 330 334 335 335 335 333 335 339 339 336 337 336 336 336 336 335 333 335 337 336 337 337 336 336 337 336 336 339 342 346 346 345 346 348 348 347 345 344 343 341 339 339 338 336 336 335 335 335 337 337 336 336 335 334 335 334 332 332 331 330 330 331 332 332 331 332 332 331 329 327 327 326 326 326
322 325 326 323 320 323 330 334 333 333 332 331 333 334 333 333 333 334 336 335 337 336 335 336 335 334 335 335 334 334 335 335 336 336 335 336 336 336 336 336 336 338 344 346 345 347 348 348 349 348 345 341 339 340 340 337 335 335 334 334 335 336 336 336 335 334 334 334 331 330 331 330 329 330 331 332 332 332 332 332 330 328 327 326 326 326 326
324 323 321 321 324 330 337 337 333 333 334 334 334 333 334 334 334 334 336 335 336 337 335 334 334 334 334 334 333 334 334 333 335 335 334 336 336 337 337 338 337 336 338 342 345 346 346 344 345 346 346 342 339 339 338 335 335 335 335 334 334 335 335 335 334 333 332 331 328 327 328 329 329 330 330 331 331 330 330 330 330 329 326 326 326 326 326
325 321 318 323 327 329 332 336 336 335 334 335 333 330 333 338 335 335 339 338 336 335 335 333 334 334 334 334 334 336 336 336 336 336 335 334 334 336 338 338 338 340 339 339 343 346 346 344 343 343 344 341 340 339 337 335 335 335 334 333 331 330 330 331 332 331 329 328 328 327 328 329 329 329 330 330 328 327 328 329 330 329 327 327 327 326 326
326 321 319 322 322 322 328 335 335 334 334 334 335 331 331 337 336 333 337 339 335 336 336 333 333 334 333 335 335 335 337 337 338 336 336 334 333 334 337 338 338 340 343 345 346 348 348 346 344 342 341 339 338 337 335 334 332 330 330 329 328 327 326 327 328 329 328 327 327 327 328 330 329 328 329 328 327 327 327 328 329 329 329 327 327 327 327
327 323 321 322 320 322 331 336 334 334 334 333 333 329 328 335 338 333 334 337 336 337 335 334 334 334 333 334 334 335 336 337 338 337 336 335 333 334 337 338 336 339 347 352 351 351 349 346 342 340 338 336 333 332 332 331 330 329 328 328 327 326 326 326 326 326 326 326 327 327 329 329 328 328 328 327 326 326 327 328 328 327 327 327 326 327 327
326 325 323 323 324 328 334 335 332 332 334 334 332 324 325 334 337 333 334 336 336 336 333 334 335 335 334 334 333 332 333 335 336 337 335 333 333 335 337 336 334 339 348 353 353 351 348 343 339 336 335 333 329 329 330 329 328 329 328 327 327 326 327 327 326 326 326 326 327 328 329 329 329 328 327 327 327 328 329 330 329 328 328 328 327 326 327
324 324 323 323 326 333 335 332 333 333 332 331 328 324 331 338 335 333 333 334 334 334 333 333 334 335 334 332 332 331 331 332 334 335 334 333 332 334 335 336 337 342 349 353 352 350 346 344 340 335 333 331 329 329 329 328 327 328 327 326 327 327 327 327 326 327 327 328 330 330 330 331 330 328 328 328 328 329 329 329 328 328 329 328 326 326 327
324 324 323 322 326 334 335 332 333 334 332 330 329 332 337 338 335 333 333 334 333 333 334 333 333 333 333 332 331 331 330 331 332 333 332 331 331 333 335 337 339 347 353 352 350 348 347 346 342 334 331 331 331 328 327 327 326 325 325 327 326 326 326 326 327 328 329 329 331 332 332 331 330 329 328 327 327 328 327 325 326 327 328 328 327 326 326
327 326 324 323 327 336 337 333 335 337 336 335 337 337 337 335 334 334 333 333 334 333 333 334 333 332 332 332 332 331 330 331 330 332 333 330 330 335 336 333 336 346 350 350 349 349 346 342 338 334 332 331 330 328 327 326 325 324 325 325 325 326 326 327 328 330 329 330 332 333 332 330 329 328 327 326 326 326 325 325 327 327 328 328 328 327 326
330 327 328 329 332 336 336 336 337 336 336 338 338 336 335 334 333 334 333 333 333 332 333 333 332 332 332 331 332 331 330 330 330 331 334 331 330 334 333 330 334 340 344 347 348 346 342 337 334 333 333 330 328 327 328 328 328 329 328 326 326 327 328 328 329 331 332 333 333 334 332 329 328 327 327 327 326 326 326 326 327 327 328 328 328 328 327
333 332 334 335 335 335 333 335 336 335 334 336 335 335 336 334 334 334 334 333 334 333 333 332 332 333 332 330 331 331 330 331 331 332 334 331 329 331 329 328 332 334 337 343 343 339 337 335 333 332 331 329 329 329 328 328 328 329 330 329 329 328 328 329 331 333 334 334 334 332 330 329 328 328 328 327 326 326 326 327 327 327 328 328 328 327 325
339 339 339 334 333 334 332 331 332 332 333 335 335 335 336 335 334 334 333 334 334 333 332 333 333 332 330 329 329 331 329 329 329 332 334 332 331 330 328 330 333 332 333 338 338 335 334 334 333 331 330 331 332 332 331 329 328 330 331 330 329 330 330 331 332 334 335 334 332 331 331 330 329 328 327 326 326 326 326 326 326 327 327 327 326 325 324
340 342 342 336 332 333 332 330 331 331 332 332 333 334 334 334 334 333 333 334 334 332 332 332 331 330 330 330 329 329 330 331 330 331 332 331 330 329 328 331 333 334 335 336 336 335 335 333 333 332 332 332 333 332 332 332 330 331 332 332 333 334 334 333 333 334 334 333 332 332 331 330 328 326 326 326 326 326 326 326 326 325 324 324 325 324 323
338 340 339 336 332 331 331 330 330 330 331 331 331 331 332 332 333 333 333 332 331 331 331 330 330 331 331 331 332 332 333 333 332 330 328 328 327 329 330 329 330 331 333 334 335 335 334 333 334 333 332 330 329 329 331 331 330 332 335 335 335 333 332 332 333 334 333 332 331 330 329 327 326 326 326 326 326 326 325 324 324 323 321 322 322 322 323
337 338 336 334 334 333 330 330 330 331 332 331 329 329 330 330 331 331 331 331 330 330 329 329 330 331 332 332 333 333 333 333 332 330 329 328 328 330 332 332 331 332 332 332 334 334 332 331 332 330 329 328 326 326 329 330 331 333 334 333 331 331 331 333 334 333 332 331 329 328 327 327 327 327 327 327 326 325 324 323 322 321 321 321 320 321 322
337 338 334 334 337 336 331 329 329 331 332 331 330 329 329 328 328 329 330 330 331 332 332 331 331 333 334 334 333 332 333 334 333 333 334 333 333 333 334 335 334 334 333 332 333 333 331 330 329 328 328 327 325 325 326 327 328 331 332 331 330 331 332 332 331 331 331 329 328 328 328 327 326 326 326 325 325 325 324 324 323 322 320 319 320 320 321
332 332 330 331 334 334 330 328 328 329 331 331 329 329 329 328 328 328 328 329 330 332 333 334 332 332 333 334 335 334 334 333 334 334 335 335 335 335 335 335 335 334 333 331 331 330 330 330 328 327 327 326 325 324 324 325 325 328 331 331 330 330 330 330 329 330 329 328 327 328 327 326 325 324 324 324 325 325 325 325 324 321 319 319 320 321 321
327 326 326 328 328 329 328 328 327 328 329 329 328 328 328 328 327 326 326 327 328 329 331 332 332 332 332 333 334 334 334 333 334 334 335 335 334 334 334 333 333 332 331 330 329 329 328 327 327 327 327 326 325 325 325 325 326 326 327 329 330 330 329 329 329 328 328 328 328 327 326 325 324 324 324 324 326 326 325 324 323 320 319 320 321 321 321
325 324 324 324 324 325 326 326 326 327 328 328 327 327 326 326 326 325 325 326 327 327 328 329 330 331 332 331 332 333 333 334 334 334 335 334 333 333 332 330 329 328 329 330 329 326 325 326 327 328 327 326 325 326 326 325 326 327 327 328 329 329 328 329 329 328 328 328 327 325 325 324 324 325 326 326 326 325 324 323 322 320 321 321 320 320 319
323 322 322 322 323 323 324 325 326 326 327 325 325 325 324 324 324 324 324 325 325 325 325 326 329 331 331 332 333 334 335 336 334 333 334 333 332 331 330 329 329 328 327 327 326 326 327 328 328 328 329 328 326 326 327 326 326 328 330 329 329 330 329 329 329 328 327 327 326 326 326 326 326 326 326 326 325 324 322 321 320 320 321 321 319 318 316
321 320 319 320 321 322 324 325 325 325 324 323 323 324 323 323 323 323 324 324 324 324 324 324 327 330 331 332 333 334 334 335 334 332 331 331 331 331 331 330 331 330 329 327 328 330 330 329 327 328 331 330 326 325 328 329 328 328 330 331 330 330 329 328 327 325 324 325 326 326 326 325 326 326 325 323 323 323 322 322 321 321 321 320 319 317 315
318 318 319 321 322 323 323 323 322 322 322 322 323 323 323 323 323 322 322 322 322 323 323 324 326 328 330 331 333 334 335 335 334 333 331 328 329 332 333 332 332 332 332 330 328 329 328 327 328 330 330 327 325 325 328 330 328 328 329 330 329 327 327 327 327 326 325 325 326 326 325 324 324 324 324 323 323 323 323 323 322 321 321 320 319 317 314
319 320 322 322 322 321 321 321 321 323 322 323 323 323 323 322 322 322 322 321 321 322 323 324 324 326 329 332 333 333 334 334 332 331 330 327 328 333 334 332 332 333 332 327 324 325 327 328 331 333 330 327 327 328 329 329 329 328 328 328 327 327 326 327 327 327 327 328 327 326 325 324 324 323 323 322 322 322 322 322 321 321 320 319 318 316 314
321 322 322 322 320 320 320 321 322 323 323 323 323 323 322 322 322 323 324 323 322 322 322 322 324 326 329 333 332 330 331 332 331 329 328 327 329 332 332 331 331 332 331 328 326 328 329 328 331 333 331 328 329 330 329 328 329 329 328 329 329 328 327 327 327 327 327 328 327 325 324 324 324 323 322 321 321 320 320 320 320 319 318 317 316 315 314
321 321 321 321 320 320 321 322 324 324 324 323 323 322 322 322 322 323 323 323 323 322 321 322 326 329 331 332 331 330 330 330 329 328 328 330 331 331 330 330 330 331 331 330 329 330 330 330 331 333 330 328 329 330 329 329 329 328 328 328 328 327 326 326 326 326 326 327 326 325 324 324 323 322 321 320 319 319 318 317 317 317 316 316 315 314 314
322 321 321 321 321 322 323 324 325 325 323 323 322 322 322 322 322 322 323 323 322 322 322 322 326 328 328 329 330 329 329 328 328 328 330 332 331 330 328 328 329 331 331 331 331 331 331 331 332 332 328 325 326 327 327 327 327 327 328 328 327 326 325 325 325 325 325 326 326 325 324 323 322 320 320 318 318 317 317 317 317 316 316 315 314 314 313
323 323 323 324 324 324 324 324 323 323 323 323 322 321 321 321 321 322 323 324 324 324 324 324 325 327 327 328 329 328 327 327 328 329 331 331 330 328 327 326 328 330 332 331 331 331 331 331 332 331 328 326 327 327 326 326 327 327 328 327 326 325 325 324 324 324 325 325 324 324 324 322 320 319 318 318 317 317 317 317 316 316 315 314 313 313 313
322 323 323 323 323 323 322 322 323 323 323 322 322 321 321 321 321 322 323 323 324 324 325 326 326 326 327 330 332 331 329 328 328 329 331 332 329 327 326 328 330 331 332 331 330 330 330 330 330 329 328 327 327 326 326 325 326 326 326 326 325 324 323 322 322 322 324 324 324 323 322 321 319 318 318 318 317 316 316 316 316 315 315 314 312 312 312
320 320 320 320 320 320 320 320 321 321 322 322 321 320 320 320 321 321 322 323 324 324 325 326 325 324 327 332 334 332 330 328 327 327 330 330 330 328 329 330 331 330 330 329 329 329 329 328 328 327 327 326 326 325 326 326 326 325 325 325 324 323 323 322 322 323 323 324 323 322 321 320 319 319 318 317 316 316 316 315 315 315 314 313 312 311 311
319 319 319 319 319 319 319 318 319 320 320 320 320 320 320 320 320 320 321 322 323 323 324 324 324 325 329 332 333 331 331 330 328 327 328 329 329 330 331 330 330 329 328 328 327 327 327 326 327 327 326 324 325 325 325 325 325 325 324 324 323 323 323 323 323 323 323 322 322 321 320 320 319 318 317 316 316 316 315 314 315 315 314 313 312 311 310
319 319 320 320 320 320 320 319 319 320 320 320 320 320 320 319 319 319 320 321 323 323 323 324 324 325 327 329 330 330 331 330 329 329 329 329 329 329 329 328 328 327 327 325 324 325 325 324 324 324 324 323 323 324 324 324 324 324 323 322 322 322 322 322 322 322 322 321 320 320 319 318 318 317 316 315 315 315 314 313 314 313 312 312 311 310 308
318 319 319 319 319 320 320 321 320 320 320 320 320 320 319 319 318 318 319 321 323 324 324 324 324 326 328 329 329 329 328 328 330 331 330 328 328 327 326 327 326 326 326 325 324 324 324 323 321 321 322 322 322 323 323 323 322 321 321 321 321 321 320 320 320 320 320 320 319 319 318 317 316 316 315 315 314 314 313 313 312 311 311 310 310 309 307
318 318 319 319 319 319 319 320 320 320 320 320 320 320 319 319 319 318 319 321 323 324 325 325 325 326 328 330 330 329 328 328 329 329 328 327 326 326 326 327 326 323 323 324 323 322 322 321 320 321 321 321 321 321 320 320 319 319 319 319 318 318 318 318 318 318 317 318 318 318 317 316 315 315 315 315 314 313 313 312 311 310 309 309 309 307 306
318 318 318 319 318 318 318 318 319 319 319 320 320 320 320 320 319 320 320 323 324 326 327 327 327 327 329 330 329 329 329 328 327 327 326 326 326 326 325 325 323 321 319 320 320 321 320 320 320 320 320 319 319 318 317 317 317 317 317 317 316 316 317 317 317 316 316 316 316 316 316 315 315 315 315 314 313 313 312 311 310 309 308 308 307 306 306
318 319 318 319 319 319 319 319 319 320 321 321 321 319 320 321 322 322 322 324 327 328 328 328 328 329 329 329 328 329 328 327 326 325 324 322 323 323 323 322 321 319 319 320 320 320 319 319 319 319 318 318 318 317 316 315 315 315 316 315 315 315 315 315 315 315 315 315 314 314 314 314 314 314 314 313 312 312 311 310 309 309 308 307 306 305 305
319 319 319 320 320 320 319 320 319 320 320 320 318 316 317 320 322 324 325 326 327 327 328 328 328 328 327 328 327 327 326 325 324 323 321 321 321 322 322 322 321 320 320 320 320 319 318 318 318 318 317 317 316 316 315 314 314 314 314 314 314 314 314 314 314 314 314 314 314 314 314 314 313 313 313 312 311 311 310 310 309 308 307 306 305 305 305
319 319 319 320 320 319 320 320 320 320 320 320 318 318 317 317 319 323 325 326 326 327 327 326 326 326 326 326 325 325 324 324 324 323 323 323 322 322 323 322 321 320 319 319 319 318 317 317 317 317 316 316 316 315 315 313 311 311 312 313 313 312 312 313 313 313 313 313 313 312 312 312 312 312 312 311 310 310 309 309 308 307 307 306 305 305 305
320 320 319 319 319 319 319 319 319 319 320 320 320 319 319 318 319 322 324 324 325 326 325 324 323 323 324 324 324 324 324 324 324 323 324 323 322 321 322 322 321 319 318 317 317 317 316 316 315 314 313 312 312 312 312 310 308 309 310 311 311 311 311 311 311 311 311 311 311 310 310 311 310 310 310 310 309 309 308 308 307 307 306 306 305 305 306
320 320 319 319 319 319 319 319 319 319 320 320 319 320 320 319 320 322 323 323 324 325 324 324 323 324 323 324 324 324 324 324 323 323 323 322 321 321 321 320 320 319 317 316 316 316 316 315 314 313 310 308 306 306 306 306 307 309 310 310 309 310 310 310 309 310 310 310 309 309 309 309 309 309 309 309 308 308 308 307 307 306 306 306 305 305 305
320 320 319 319 319 320 319 319 319 320 320 319 319 319 320 319 319 321 322 323 323 323 323 323 323 324 323 323 323 323 323 323 322 322 321 321 320 320 319 319 318 317 316 316 316 315 315 314 314 312 309 307 306 305 306 306 308 308 308 308 308 308 308 309 308 309 309 309 309 308 308 308 308 308 307 307 307 307 307 306 306 306 306 305 305 305 305
320 319 319 318 318 318 318 318 319 319 319 318 317 318 319 318 318 319 320 321 321 321 322 322 322 322 322 322 322 322 322 322 321 320 320 319 319 319 318 317 317 316 314 313 314 314 314 313 313 310 308 307 307 307 307 308 308 307 306 306 306 306 307 307 307 307 307 308 308 308 307 307 307 306 306 306 306 306 306 305 305 305 305 305 305 305 305
320 320 320 320 318 317 317 318 318 318 318 318 319 320 319 318 318 319 320 319 318 319 321 321 321 321 322 321 321 321 322 321 320 320 319 319 319 318 317 316 316 314 311 311 312 313 312 311 310 309 308 308 308 307 307 308 307 306 306 306 305 305 305 305 306 306 307 307 307 307 306 306 305 305 305 305 305 304 305 305 305 305 305 305 305 305 304
319 320 320 321 320 318 317 318 319 320 320 320 320 320 320 319 320 321 320 319 317 318 320 320 320 321 321 320 319 319 320 320 320 320 320 319 319 318 316 316 315 314 311 310 310 311 311 310 310 309 309 309 308 307 308 308 307 306 305 305 305 304 304 305 305 305 306 306 306 306 306 305 305 304 304 304 304 304 304 304 305 304 304 304 304 304 304
318 318 318 318 318 317 318 318 319 319 319 318 318 318 318 319 319 319 319 318 318 318 319 319 320 320 320 319 319 319 320 319 319 319 319 319 318 317 316 315 315 313 312 310 310 311 311 310 310 309 309 309 308 308 308 308 307 306 305 305 304 304 304 304 304 304 304 305 305 305 304 304 304 303 303 303 304 304 304 304 304 304 303 303 304 304 303
317 317 317 316 316 317 317 318 318 318 317 317 318 318 318 318 317 318 318 318 319 318 318 318 319 319 319 319 319 319 319 319 319 318 318 318 317 316 315 314 314 313 312 311 311 311 311 311 311 310 310 309 308 308 308 308 307 306 305 305 304 304 304 303 303 303 303 304 304 304 303 303 303 303 303 303 304 304 304 304 304 304 303 303 303 303 303
318 318 318 317 317 318 318 318 318 318 318 318 317 318 318 318 318 318 319 319 319 318 318 319 319 319 318 319 319 319 319 320 319 318 318 317 316 316 315 314 314 313 312 312 311 311 311 311 311 310 309 308 308 308 308 308 307 307 306 305 304 303 303 303 303 303 303 303 303 303 303 303 303 303 303 303 303 303 303 303 303 303 303 303 302 302 302
Wind_Speed
17 19 16 14 14 14 15 15 17 18 19 20 18 16 14 9 6 5 5 8 10 10 11 12 10 7 5 5 6 5 6 10 14 13 13 13 12 16 19 18 19 21 23 27 30 31 31 34 38 37 35 34 33 33 31 28 26 28 27 21 14 15 18 16 13 14 14 13 15 15 14 13 12 12 13 13 13 13 13 15 14 13 13 16 18 18 17
16 20 21 21 18 15 16 17 18 19 20 22 20 19 20 16 11 10 8 9 9 8 7 7 5 3 3 3 4 7 8 10 14 15 15 17 18 16 19 21 21 23 27 30 31 33 35 37 38 38 37 36 36 35 32 30 31 30 24 16 13 20 23 17 14 16 16 16 17 15 14 13 12 12 12 12 14 14 14 16 16 13 13 15 16 15 15
14 18 18 18 18 18 18 18 20 20 18 19 20 19 18 16 15 13 9 9 8 7 6 6 3 1 2 0 2 9 12 12 14 16 17 18 19 16 17 22 21 20 23 29 35 37 39 40 40 39 37 37 37 34 31 31 31 26 18 13 15 24 24 15 13 17 18 18 18 16 14 13 12 12 12 13 14 14 14 16 16 14 13 14 14 15 15
11 13 16 19 22 21 21 21 22 20 16 15 15 14 15 14 11 7 5 5 5 5 5 4 2 3 5 7 8 12 12 10 11 12 14 16 17 15 12 19 24 26 26 30 35 36 37 39 39 38 38 37 37 34 31 31 29 23 18 18 21 24 20 14 15 19 19 19 18 16 14 13 12 13 14 14 14 14 14 16 15 14 14 14 16 16 14
10 14 19 20 18 16 15 16 16 16 16 16 16 16 14 12 10 6 4 5 2 4 3 1 3 4 4 2 2 3 4 6 7 9 12 14 17 17 15 15 20 25 27 28 30 33 36 38 38 38 40 40 39 35 30 31 29 23 21 23 25 22 17 16 19 21 20 19 18 15 14 13 14 14 14 14 13 14 15 15 16 15 15 16 16 16 14
8 15 17 13 11 11 8 8 11 15 16 16 19 18 10 3 3 4 5 3 3 6 3 2 1 1 3 5 5 5 6 8 10 11 12 14 16 17 17 18 18 20 25 27 28 33 36 37 38 40 41 40 37 33 33 34 29 23 22 23 22 18 17 19 21 20 20 20 18 16 14 14 15 15 14 14 14 15 16 16 17 16 15 16 17 16 17
7 10 11 10 11 7 5 8 13 15 14 14 16 13 5 7 6 6 5 4 3 3 3 4 1 3 4 4 5 7 11 13 11 11 13 14 15 16 17 18 18 18 21 24 27 32 35 35 36 37 39 39 35 33 37 34 22 19 24 24 19 17 19 21 21 19 20 19 17 15 15 15 16 15 14 14 15 16 17 18 18 17 17 17 18 17 17
8 7 9 10 7 4 6 9 10 8 8 11 13 10 2 4 6 6 6 5 3 3 3 3 4 6 3 2 5 11 17 17 12 9 11 12 14 14 14 16 17 18 20 23 26 30 33 35 34 33 35 36 36 38 38 27 19 22 27 25 20 20 21 21 20 19 19 18 16 15 15 16 16 15 16 17 16 16 17 19 19 19 19 19 19 18 17
7 9 10 7 4 5 6 7 7 7 9 8 7 7 8 6 3 1 5 7 5 6 6 6 5 2 2 4 5 8 8 4 7 5 9 10 12 11 9 10 13 16 19 23 28 31 31 32 32 32 33 34 36 38 32 23 22 25 24 21 20 21 21 21 20 19 18 17 16 16 16 17 16 17 18 17 15 15 17 18 18 19 20 19 19 19 17
5 8 10 8 8 9 6 6 8 7 10 10 6 5 6 4 5 6 5 8 6 5 5 5 3 4 1 5 1 6 7 2 2 5 6 7 11 9 6 7 11 15 19 22 27 28 28 29 32 35 36 34 32 29 26 24 26 24 19 19 19 19 20 20 19 18 17 17 16 16 17 17 16 17 18 16 16 18 20 18 17 19 19 19 20 21 18
5 8 9 8 9 7 3 8 11 8 10 12 8 5 5 3 3 5 4 6 6 5 5 6 5 2 5 3 4 3 2 3 4 3 1 7 11 7 4 7 12 15 19 21 22 23 26 29 33 35 36 31 25 23 25 26 25 20 19 20 19 18 19 18 17 17 16 17 18 18 18 18 17 16 18 19 20 22 22 19 17 19 20 20 21 21 18
8 10 8 6 7 4 1 6 7 6 9 12 10 7 3 1 2 4 5 6 8 10 6 5 4 4 5 2 3 4 3 3 4 2 2 9 9 6 7 11 13 16 19 20 21 23 27 32 35 32 29 25 21 23 27 25 20 20 23 22 18 17 18 17 16 17 17 18 20 20 19 18 17 15 17 19 20 20 19 17 18 19 21 20 20 18 17
9 9 8 8 7 3 0 5 9 7 7 8 8 7 1 4 2 1 2 3 7 9 7 6 4 4 3 3 7 6 7 8 5 4 5 10 9 8 10 11 13 16 19 23 26 27 30 34 32 25 22 23 22 24 26 22 20 22 22 20 18 16 16 17 17 17 16 16 19 22 20 18 17 16 15 16 17 17 17 18 19 20 22 23 21 18 17
9 9 9 9 6 1 4 7 9 9 3 4 3 1 3 6 6 4 2 3 4 1 4 4 3 3 3 6 11 10 9 12 10 6 8 12 11 9 10 10 10 11 11 17 26 30 31 31 26 21 23 24 23 24 25 24 23 21 17 17 16 15 16 18 18 18 17 17 20 21 19 18 17 15 15 17 19 20 20 21 21 22 23 24 22 20 19
6 7 7 7 4 3 9 9 7 10 5 3 2 5 2 0 4 4 3 2 6 7 7 5 6 9 9 9 14 16 13 15 18 13 11 12 11 9 11 11 11 10 8 12 21 26 27 25 20 19 25 24 19 20 24 24 22 18 15 15 14 14 15 16 19 21 21 20 20 20 18 18 17 16 18 21 21 21 21 21 22 22 22 23 24 24 22
1 3 2 1 2 6 11 8 2 6 7 2 3 5 1 1 4 5 3 5 7 8 9 8 8 12 12 11 15 21 18 17 21 18 13 14 13 9 7 8 11 13 14 18 22 22 24 25 20 17 22 23 19 19 21 18 14 12 12 11 11 13 13 16 20 22 20 17 17 17 18 20 19 19 20 20 19 19 19 20 21 21 22 24 25 23 20
2 1 3 1 4 6 12 12 5 6 11 9 9 9 5 4 6 4 4 5 7 8 11 13 12 12 13 14 18 23 20 17 18 12 11 14 15 13 11 12 17 21 20 22 24 20 20 26 25 19 20 23 23 21 18 16 14 11 10 11 17 18 17 17 18 18 17 17 16 16 17 19 20 18 16 16 18 18 16 18 20 20 20 21 20 19 18
3 3 3 3 4 5 12 15 12 11 13 12 12 13 10 8 5 2 5 5 6 7 10 13 12 13 16 19 21 23 24 22 21 15 14 14 13 11 10 10 13 19 17 18 23 21 20 25 27 23 19 18 16 14 15 17 17 16 16 20 24 23 21 20 20 20 20 18 16 15 16 16 16 15 14 15 16 16 16 17 18 19 18 18 17 18 17
2 3 5 5 3 5 10 12 12 12 12 11 11 11 10 8 6 3 3 3 4 7 8 11 14 16 19 20 21 22 22 17 13 10 10 8 5 6 7 8 3 7 6 10 18 22 21 22 22 19 15 11 7 7 11 11 13 16 20 22 23 22 22 22 21 20 20 17 14 13 14 13 13 13 13 12 13 15 16 17 17 18 17 16 16 16 15
5 4 7 11 6 12 14 10 9 9 8 9 9 9 8 8 8 6 5 5 6 9 10 12 16 18 18 17 17 18 14 4 2 1 1 5 6 6 9 11 9 7 7 9 14 16 16 17 17 14 9 6 3 4 6 8 11 14 16 18 19 19 19 17 15 15 16 14 13 12 12 14 15 15 14 15 16 18 19 20 21 20 18 17 15 14 14
3 5 8 12 10 14 13 10 9 7 6 6 7 8 8 9 10 10 10 9 9 11 13 13 14 15 14 14 15 16 11 1 6 6 6 10 13 8 7 11 12 13 15 16 14 11 9 8 8 7 6 4 2 1 4 9 10 11 13 14 14 13 11 10 11 13 14 12 11 11 12 12 14 14 14 15 17 19 21 21 21 21 20 20 17 13 12
2 3 3 1 5 7 7 8 8 6 5 5 6 7 8 10 12 12 12 12 11 12 15 14 14 13 11 10 11 10 4 4 7 6 8 12 12 11 11 11 10 13 19 20 13 7 5 5 7 8 7 7 7 6 7 8 8 10 11 11 10 9 8 8 9 10 9 7 8 9 10 11 13 14 14 15 16 19 20 19 19 21 21 18 15 11 12
5 4 6 6 5 6 4 6 6 5 5 5 5 7 8 10 11 11 12 13 13 13 14 13 14 13 12 11 8 2 7 12 13 10 9 12 15 15 14 12 12 13 17 16 11 9 13 14 12 11 11 9 8 6 7 8 9 9 9 10 10 9 8 9 10 10 10 7 7 9 10 13 15 16 16 16 16 17 18 18 19 19 16 12 10 9 9
8 8 8 8 6 3 3 5 5 3 3 3 5 8 9 10 11 11 12 12 13 14 15 14 14 14 12 10 7 2 9 16 18 15 12 12 14 17 17 16 15 14 15 16 16 17 17 14 12 11 11 8 5 3 6 7 6 8 10 11 11 10 9 9 10 11 13 12 11 10 10 11 11 13 15 16 16 16 18 18 16 14 11 8 8 7 7
9 9 7 6 7 8 8 8 7 3 3 4 6 9 11 11 12 12 12 12 13 13 15 16 15 14 13 12 10 8 8 10 11 14 18 18 15 15 17 17 16 15 16 19 21 17 14 13 13 13 10 7 5 4 6 6 6 8 10 10 11 11 10 9 9 10 13 13 11 10 10 10 10 11 12 14 15 16 15 15 13 11 8 7 7 6 5
9 8 7 6 5 8 9 8 7 6 7 8 8 10 12 12 12 12 12 13 14 14 16 16 14 13 14 12 7 6 7 9 11 13 17 17 14 14 18 20 20 19 18 18 18 16 14 15 14 10 8 6 5 3 5 7 8 9 10 11 11 11 11 10 10 11 11 11 10 10 9 9 10 10 10 12 16 17 15 13 12 10 7 6 6 7 7
10 11 10 7 4 4 5 7 9 12 13 12 11 11 12 12 12 13 13 14 15 16 17 17 14 13 16 13 8 8 9 12 13 11 9 10 13 15 17 19 19 18 16 17 19 19 17 16 12 11 12 9 6 5 8 11 11 10 11 12 11 11 11 12 11 11 13 14 14 13 10 10 10 11 12 14 15 13 11 10 9 9 8 8 6 7 8
7 7 7 6 5 7 8 9 10 11 12 11 10 10 11 12 12 14 15 15 16 16 17 18 15 13 14 12 7 6 9 13 15 12 10 11 13 16 20 20 17 17 19 20 20 19 16 13 13 14 14 10 7 7 10 12 11 10 11 12 11 11 12 12 11 12 14 14 13 12 11 12 13 14 14 12 9 7 6 6 6 7 8 8 7 8 9
4 4 5 6 6 7 8 9 9 8 8 9 10 11 11 12 12 13 13 13 15 15 17 19 19 15 12 11 9 9 10 10 12 13 13 13 12 13 19 19 16 16 18 17 15 15 15 14 15 16 13 9 8 9 11 11 11 10 10 11 12 14 14 13 13 15 14 12 12 11 11 12 13 13 12 9 5 3 4 5 5 5 5 6 7 8 9
6 7 7 7 8 9 8 8 7 7 8 10 11 12 12 12 12 12 12 12 14 14 15 18 21 18 11 11 12 11 10 10 11 12 14 17 16 15 16 16 15 16 16 14 13 15 16 15 15 15 11 8 9 10 10 10 10 9 10 12 14 14 14 13 14 15 14 12 12 13 13 13 12 9 7 5 4 3 5 6 5 4 4 4 5 5 6
8 8 9 10 9 9 9 8 7 7 9 11 12 13 13 13 13 13 14 13 14 15 15 15 17 16 9 7 9 7 8 10 12 13 12 15 18 17 15 15 15 15 15 14 13 14 14 13 14 15 12 8 9 9 9 9 9 10 13 16 16 15 12 11 12 13 12 9 10 11 11 10 8 7 7 7 6 6 8 7 5 4 5 4 4 7 10
8 9 10 10 9 8 8 8 9 10 11 11 12 13 13 13 14 14 14 14 14 15 15 14 15 17 13 8 8 9 9 10 12 14 14 15 17 17 17 16 15 13 14 15 14 13 13 12 13 14 12 8 8 9 8 8 8 9 13 15 15 15 14 12 10 11 10 7 9 10 9 8 7 8 9 9 8 8 8 7 6 6 6 4 6 12 14
10 10 10 11 10 10 11 11 11 12 12 12 13 13 13 14 15 15 15 16 15 15 15 15 15 17 15 11 9 11 13 13 15 18 18 16 16 17 16 14 13 14 15 15 12 11 11 11 11 11 9 7 7 8 8 7 8 10 13 14 13 14 16 15 12 11 10 8 9 10 10 9 8 8 9 9 10 9 9 8 8 7 6 5 8 13 13
11 11 12 13 12 13 14 13 13 13 13 14 14 14 14 15 15 16 16 17 17 17 16 16 18 18 14 8 10 13 15 16 17 18 17 15 15 16 16 14 13 13 12 11 10 9 9 10 10 8 6 6 6 6 7 7 8 10 13 14 13 13 13 14 13 12 10 10 11 12 9 8 8 9 10 12 12 10 8 8 8 7 7 9 11 13 15
12 13 14 15 15 15 15 15 15 15 15 15 16 16 16 16 17 17 17 18 19 18 15 15 18 18 13 8 10 12 12 12 13 15 17 16 14 15 16 16 14 14 13 11 11 10 8 8 8 6 5 5 5 5 6 7 6 8 10 10 9 8 8 10 12 12 11 12 12 10 7 8 9 10 11 13 13 10 8 8 7 6 8 12 14 15 17
15 16 16 17 17 17 17 18 17 17 17 17 17 17 18 18 18 19 19 19 19 18 16 15 16 13 9 8 7 7 9 11 13 15 18 18 16 15 17 17 16 14 13 11 10 8 6 6 8 8 6 5 5 8 9 9 8 8 9 7 5 6 7 9 11 12 13 14 12 8 8 11 13 12 12 14 13 9 7 7 7 6 8 12 13 12 12
17 18 19 19 18 18 18 18 18 17 18 18 18 18 19 20 19 19 19 18 18 17 16 15 15 13 11 11 12 12 11 11 12 14 17 18 17 16 16 16 15 13 11 8 7 7 6 8 9 9 7 6 7 9 11 11 11 10 8 5 5 6 7 8 10 10 11 12 10 7 8 10 11 11 12 13 11 8 6 6 5 4 5 9 11 11 10
19 20 20 20 20 20 20 19 19 19 19 19 19 20 21 21 20 20 20 18 17 16 15 14 12 11 8 7 11 16 15 13 15 16 15 14 15 15 16 15 14 12 12 11 10 10 11 9 7 7 9 10 9 8 9 11 13 11 7 4 4 4 4 5 7 7 7 7 7 6 6 6 6 8 9 10 10 9 9 9 8 6 5 6 9 11 9
21 21 22 21 21 21 20 20 20 20 20 20 21 21 20 21 21 21 20 18 16 13 11 10 9 8 5 5 9 13 15 16 18 18 15 14 14 14 15 15 13 10 10 11 11 12 12 10 6 7 9 9 8 8 8 9 9 7 3 2 2 2 2 4 5 6 5 5 6 6 6 6 6 7 9 11 12 11 10 11 11 9 8 7 8 8 7
22 22 23 23 23 23 22 21 21 21 21 21 21 21 20 22 23 22 19 16 12 8 7 5 5 6 7 8 10 12 14 15 18 19 17 16 16 16 15 16 14 12 11 11 11 11 8 6 6 8 8 6 6 7 8 7 7 6 2 2 3 4 4 6 6 6 5 6 6 6 7 8 9 11 12 14 14 12 12 12 10 8 7 7 7 7 6
21 21 22 22 23 23 23 21 21 21 21 21 24 25 24 23 24 23 19 13 7 4 5 5 5 6 7 8 10 14 15 16 17 16 13 13 15 16 14 13 12 9 7 9 11 9 7 6 6 7 6 7 8 8 7 6 6 6 4 5 5 5 6 8 9 9 8 9 10 10 9 9 10 12 14 14 13 12 12 11 10 8 8 9 9 9 8
20 21 22 22 21 21 21 20 19 20 21 22 26 28 27 27 27 23 14 9 6 5 6 6 6 7 7 8 10 13 14 14 13 11 9 11 12 10 9 9 8 7 9 12 12 8 5 6 8 8 7 7 9 10 8 8 7 7 6 7 7 7 7 8 9 10 11 11 12 12 11 10 11 12 13 12 12 11 11 10 9 9 10 10 11 10 10
19 19 20 20 19 18 18 17 17 18 20 22 25 27 26 25 24 17 7 8 8 6 6 6 6 6 7 7 8 9 10 10 10 8 7 8 7 6 8 12 12 9 10 13 11 7 6 7 10 10 9 9 11 12 12 11 9 8 9 10 11 10 10 10 11 12 12 11 11 12 12 11 10 12 12 11 10 10 10 10 10 10 10 10 11 11 10
18 18 18 18 16 15 15 15 15 15 16 17 18 19 16 12 11 9 3 6 7 6 5 5 5 5 6 7 7 8 8 9 9 8 8 8 7 7 10 13 11 8 8 9 8 8 9 10 9 8 9 10 12 14 15 14 10 9 10 13 13 12 10 10 11 14 14 12 11 13 13 12 11 13 13 12 11 11 10 9 9 9 9 10 10 10 9
15 15 15 15 13 11 11 12 12 12 11 9 10 9 5 4 7 12 8 3 5 4 3 4 4 5 5 6 7 9 10 10 10 9 9 8 8 9 11 12 10 8 7 7 7 9 12 13 11 9 8 9 10 11 12 10 7 7 9 10 11 12 12 11 11 13 14 13 12 12 13 14 16 17 15 12 12 13 13 11 10 9 10 10 11 11 10
11 11 11 11 9 8 8 8 9 9 9 7 6 6 3 3 9 14 10 3 1 1 2 3 4 5 5 5 7 9 9 9 10 11 11 10 10 12 12 10 9 8 8 8 10 13 15 14 13 11 9 8 7 6 5 4 5 7 9 9 9 11 13 13 12 12 13 14 13 12 11 14 16 16 13 11 11 13 13 12 11 10 10 11 11 11 11
9 8 8 7 7 7 6 6 7 8 8 8 8 7 6 7 10 10 9 7 4 3 3 2 3 5 5 5 7 9 9 8 10 11 9 9 12 13 10 9 9 9 8 8 11 15 16 15 14 12 8 7 8 5 0 4 5 6 7 8 8 8 10 12 12 12 13 14 14 13 13 12 13 13 12 12 12 13 12 12 12 12 12 12 11 11 11
8 7 6 6 6 5 4 4 5 6 7 8 8 7 7 8 9 8 9 9 7 5 5 5 6 6 6 7 8 10 9 9 11 12 11 11 12 12 12 12 12 11 10 10 13 15 15 15 15 13 10 10 9 4 2 4 8 7 6 8 10 10 9 10 12 13 13 13 13 13 13 12 12 13 13 13 12 12 12 11 11 12 12 12 12 12 12
9 8 6 5 6 6 6 6 5 6 6 7 7 6 6 6 6 6 6 7 7 6 6 7 8 8 7 8 9 9 9 9 10 12 14 14 13 12 14 15 14 13 12 13 14 13 13 14 17 16 14 14 10 2 0 5 10 10 9 11 12 11 10 10 12 13 13 12 12 13 14 13 12 13 13 13 12 12 12 12 11 12 13 12 12 13 13
12 11 10 9 8 9 9 8 7 7 7 7 7 6 5 5 6 6 6 6 5 6 7 8 8 7 6 6 7 8 9 9 9 10 13 15 13 12 14 17 16 14 12 12 12 13 14 14 16 16 15 15 10 5 4 7 10 11 12 13 11 10 11 13 14 14 13 11 10 10 11 12 13 13 13 13 13 12 12 12 13 13 14 14 13 12 12
10 11 11 11 11 11 11 10 10 10 10 8 6 5 6 6 5 5 5 4 4 4 6 7 7 6 5 6 7 7 8 9 9 9 11 12 12 12 14 17 18 16 14 11 12 14 16 16 15 16 15 13 9 7 7 9 10 11 11 12 12 12 14 15 14 12 12 12 12 11 11 12 13 13 13 13 13 13 12 12 12 13 14 14 14 13 12
7 7 9 9 9 10 9 8 9 10 10 8 7 7 8 8 6 4 4 4 4 4 4 5 6 7 6 7 7 7 7 8 9 9 10 11 11 12 15 19 20 18 15 13 14 16 19 19 17 16 14 10 8 8 9 10 11 11 11 12 13 14 14 14 12 11 11 12 14 14 14 13 12 12 13 14 14 14 13 13 13 13 12 13 14 15 15
Wind_Direction
228 249 256 251 243 233 225 225 228 223 224 238 249 252 247 222 200 214 169 180 216 209 193 204 208 213 210 164 167 219 252 266 267 258 249 250 239 220 216 221 224 219 210 205 205 202 197 194 191 188 188 190 192 198 199 194 195 199 201 205 198 195 207 212 212 221 228 228 228 230 234 239 245 253 261 265 269 280 282 280 283 282 279 280 284 290 295
222 229 239 246 252 247 233 232 236 231 221 222 230 244 250 241 231 226 178 167 216 231 225 232 223 229 279 1 3 315 307 298 282 272 270 270 265 241 213 208 212 210 209 212 211 205 199 195 192 190 191 195 198 201 200 197 199 203 207 212 197 197 211 216 210 219 229 228 225 227 232 239 246 255 264 267 269 276 276 277 283 282 277 283 290 294 296
235 227 230 238 248 253 245 238 240 242 238 228 223 229 238 239 239 235 202 172 190 204 217 233 228 228 259 5 315 280 276 278 272 269 273 273 273 261 221 207 207 206 210 212 208 204 201 196 193 192 193 195 197 199 197 195 199 207 214 218 208 206 213 218 213 219 228 226 223 224 229 237 246 252 258 262 267 275 277 277 284 289 290 290 287 286 288
245 237 236 233 233 239 244 244 240 236 240 240 232 229 232 233 232 229 217 214 205 180 184 210 234 232 203 186 204 230 246 260 261 265 277 282 287 286 247 216 210 208 209 206 200 199 199 193 191 191 191 190 189 191 196 197 201 212 215 210 211 211 211 213 213 219 225 223 222 225 230 240 251 257 263 266 268 274 278 281 288 292 288 282 279 286 293
236 239 243 241 237 235 242 250 248 239 236 238 239 239 237 235 226 205 203 242 252 84 105 238 266 241 216 191 221 262 288 303 292 279 282 287 287 289 282 256 229 211 205 202 200 201 198 193 192 193 192 191 191 196 206 206 205 209 205 204 212 211 204 208 215 220 223 220 221 227 234 245 255 261 268 272 274 278 279 280 284 284 280 278 280 287 291
239 244 254 263 257 243 246 269 269 262 257 255 254 247 232 202 197 147 108 110 83 80 117 186 234 309 331 331 325 321 300 284 279 271 271 277 275 273 276 274 258 228 207 200 204 206 202 199 201 203 201 199 201 209 211 202 199 204 202 204 211 205 196 205 214 220 221 219 222 230 236 247 259 264 270 272 276 280 279 277 278 279 278 275 278 285 283
252 251 255 258 251 252 307 297 268 264 277 293 290 268 200 120 112 115 116 142 136 91 105 104 99 253 261 261 255 268 266 258 262 269 268 268 270 268 266 267 266 248 220 208 207 205 204 204 206 206 205 205 210 211 200 192 201 216 207 201 201 195 195 205 213 218 219 221 229 235 237 247 260 267 269 268 270 273 275 275 274 276 277 276 280 286 281
244 241 238 239 245 280 315 294 276 283 306 322 330 324 307 117 120 139 155 168 200 232 163 159 237 233 207 247 270 276 265 243 233 262 279 273 268 264 255 254 260 255 237 225 217 210 209 209 206 203 204 207 208 200 191 196 220 217 198 192 193 197 202 209 214 216 219 226 236 242 241 245 253 261 263 263 266 274 277 273 270 273 275 275 281 284 281
240 240 240 236 250 257 262 285 304 316 305 302 323 318 305 328 337 233 140 136 183 208 181 197 222 122 74 290 298 327 312 230 182 242 280 284 282 276 262 257 261 260 249 234 223 217 209 202 198 199 199 196 194 193 197 211 213 196 186 190 199 205 210 212 215 221 225 230 237 243 243 241 249 264 268 267 271 279 279 272 269 272 272 274 281 279 277
249 251 248 241 244 242 237 262 270 282 294 301 314 282 267 299 292 258 158 138 175 183 160 186 155 84 312 258 13 19 347 339 204 243 249 275 285 276 259 266 270 264 252 235 222 213 203 197 199 202 197 189 190 199 209 211 199 190 193 204 210 214 216 216 221 226 230 235 241 244 242 239 250 266 268 266 272 278 280 277 272 271 270 274 280 275 272
237 243 244 244 248 244 248 257 245 236 264 281 297 285 254 232 241 233 188 178 181 161 174 187 149 145 253 237 81 42 284 247 262 271 297 297 293 289 265 271 274 263 247 232 217 206 202 199 195 191 189 188 192 202 203 197 194 198 206 211 216 220 222 225 228 228 234 242 243 241 240 241 252 263 263 268 278 280 279 275 272 276 277 275 278 279 278
226 234 241 251 252 243 265 277 265 241 242 253 254 240 222 172 215 238 248 221 163 142 167 193 171 208 250 301 5 350 332 290 243 202 302 293 286 292 279 262 258 252 241 227 212 203 198 189 180 179 189 193 191 195 196 193 197 206 212 217 222 223 225 232 236 237 243 245 242 241 241 241 251 262 267 276 283 280 274 271 273 284 285 279 278 281 279
232 235 243 252 252 245 222 280 285 270 226 219 229 224 223 13 348 197 205 175 137 144 183 206 211 212 215 294 297 300 310 297 253 194 266 277 263 260 257 237 230 236 231 220 209 199 191 185 181 183 191 191 189 194 197 199 205 212 218 221 221 222 232 245 250 247 245 249 250 247 240 239 251 262 267 272 273 270 276 280 278 282 287 286 285 283 283
237 234 241 247 243 311 328 301 318 334 294 212 226 308 352 352 14 51 113 128 86 54 235 226 260 277 263 288 302 314 315 302 290 249 243 261 260 242 219 205 218 235 222 198 192 186 183 186 188 187 184 185 192 200 203 208 211 214 220 224 226 239 253 254 248 241 243 255 254 246 243 249 253 252 256 263 266 269 278 284 281 282 288 290 286 281 283
241 239 245 248 242 329 329 312 341 20 26 236 286 14 10 335 59 34 305 335 25 349 312 306 314 309 306 310 315 315 306 295 289 269 236 244 249 214 195 204 214 221 210 183 180 180 180 182 187 188 186 186 192 203 209 212 213 215 224 232 241 255 261 260 254 250 255 259 249 241 246 248 242 248 263 268 270 275 281 282 282 284 288 290 286 283 284
267 243 221 257 303 5 20 23 49 78 87 120 335 8 354 240 45 26 335 3 12 340 324 326 307 294 300 310 307 301 293 281 279 268 231 219 220 200 204 218 195 197 210 199 186 184 183 182 183 181 181 188 204 215 215 215 218 218 220 236 256 261 263 273 271 262 255 248 237 235 242 244 248 261 270 271 274 280 284 285 286 285 286 287 286 286 292
93 132 147 143 312 358 45 57 69 84 79 64 35 38 56 48 31 0 303 334 351 335 330 329 317 301 302 302 297 294 289 279 276 259 195 201 223 232 254 249 212 208 212 194 183 188 191 188 185 176 174 190 209 221 226 234 242 236 228 253 271 271 269 273 271 263 254 243 238 247 256 259 261 260 260 269 278 280 282 287 289 286 288 293 294 298 303
59 26 18 14 3 41 61 59 52 54 58 50 41 44 49 49 42 334 287 315 332 318 312 312 309 303 298 293 290 291 290 285 279 257 217 220 234 229 250 265 225 212 207 180 173 182 188 184 181 179 180 187 202 232 257 258 252 251 260 269 270 265 261 259 258 262 264 257 252 258 260 258 257 261 270 278 277 277 283 287 283 281 288 299 304 306 304
193 3 337 303 304 82 80 66 55 52 49 42 40 43 40 33 34 24 357 335 306 292 287 288 288 285 284 283 283 288 293 291 282 258 222 216 219 202 232 270 234 169 154 125 138 155 166 167 167 173 182 185 199 261 278 267 257 260 263 259 253 249 251 254 257 261 262 256 251 252 251 252 261 273 279 272 268 278 286 284 280 283 292 301 303 305 303
180 164 205 213 167 92 83 79 65 54 51 46 40 42 42 31 25 18 355 320 292 284 280 280 283 284 288 293 298 303 309 296 195 266 238 226 249 247 227 231 221 178 142 106 114 134 140 136 136 140 148 165 201 289 280 255 255 258 247 239 243 252 256 254 251 249 245 238 237 245 254 262 267 266 264 264 271 279 280 281 284 288 293 295 295 301 305
143 141 192 194 144 91 75 80 74 52 43 51 43 41 41 31 23 14 356 342 323 309 303 297 292 291 291 293 298 306 315 250 185 232 249 231 235 235 193 196 208 196 171 151 142 143 132 121 136 151 151 158 170 278 247 221 223 239 245 250 260 262 251 240 239 240 239 239 243 249 253 261 268 269 268 270 273 276 280 285 288 289 291 290 287 285 286
120 94 9 3 125 101 64 60 65 49 31 39 37 35 34 25 19 12 359 352 340 321 314 307 302 309 319 312 299 292 304 75 102 121 123 134 155 163 153 152 156 160 162 161 158 156 154 169 188 183 170 172 183 209 230 226 231 247 251 252 254 240 225 232 238 228 223 233 244 244 249 270 284 285 280 273 273 278 285 288 288 290 294 292 288 282 277
105 80 39 40 89 117 81 44 42 40 32 25 20 26 24 14 11 6 357 354 343 327 322 314 305 312 324 323 314 236 146 113 98 109 126 132 140 143 144 148 147 146 155 162 159 150 154 162 165 160 164 179 192 220 254 263 264 257 234 215 221 226 225 238 237 214 206 229 256 257 264 275 277 276 276 274 272 277 284 288 292 296 298 297 297 295 286
89 68 52 37 23 15 18 13 7 21 41 20 360 6 5 357 356 353 346 344 337 326 323 315 301 297 295 292 295 240 153 131 117 119 134 148 150 144 143 150 153 150 152 154 153 152 153 158 163 169 179 187 187 232 268 266 249 246 235 216 214 221 227 235 236 225 226 244 261 265 267 265 259 262 271 273 273 279 287 293 297 300 301 302 304 299 290
67 64 52 26 350 325 319 323 313 310 57 39 355 347 345 340 338 336 331 330 327 319 311 303 296 291 286 279 277 265 220 179 156 142 139 143 154 162 166 169 169 171 173 166 165 171 175 171 170 172 184 210 219 219 242 250 234 233 234 218 210 221 231 233 237 242 246 253 258 259 261 260 254 256 265 273 280 287 292 296 300 302 305 311 314 311 307
32 33 17 356 322 304 305 313 318 340 15 10 342 329 327 323 321 323 320 314 308 301 297 297 293 286 281 272 247 217 201 192 189 175 162 168 191 207 207 204 198 195 192 184 180 184 178 171 171 166 167 203 235 211 206 232 235 223 218 214 214 224 231 232 240 252 253 249 247 246 246 247 247 247 253 267 278 285 290 292 295 297 300 305 317 327 329
2 356 345 335 322 323 342 353 347 342 340 335 325 320 318 314 312 311 304 297 294 293 294 296 293 281 276 267 227 191 181 177 181 185 187 203 216 209 198 192 185 179 178 175 172 170 163 163 168 158 154 179 228 221 198 214 225 218 213 216 220 230 239 239 241 249 249 244 243 241 236 234 240 246 255 265 272 278 285 289 293 300 301 299 313 331 334
344 337 345 0 6 1 355 341 328 323 320 319 321 319 313 308 306 303 298 294 292 292 294 296 295 284 277 271 244 184 171 179 193 210 223 230 222 198 180 174 168 163 164 165 165 168 168 164 162 161 168 192 223 206 195 208 218 216 217 222 228 241 247 240 235 244 249 245 241 241 241 239 240 245 253 260 262 257 260 270 280 291 295 295 299 312 321
350 7 26 23 360 341 327 316 314 318 319 320 324 323 318 316 312 307 304 303 300 298 298 300 302 296 274 246 217 186 176 189 206 212 211 217 212 177 159 159 159 157 160 163 162 164 164 159 161 172 187 202 196 187 196 212 219 220 224 230 235 240 242 237 234 239 241 235 234 247 254 247 240 242 245 244 229 216 244 259 258 260 278 292 300 312 321
20 18 2 342 332 325 316 316 325 329 326 327 329 325 323 324 320 316 317 318 313 311 309 305 304 301 277 227 217 222 216 208 213 218 216 213 201 172 153 158 162 160 161 163 160 161 165 166 172 183 193 197 191 193 201 211 217 225 228 230 236 244 246 242 238 239 241 238 241 255 260 248 240 239 234 221 204 214 238 239 231 231 251 271 290 307 300
359 351 331 323 324 318 311 318 329 325 322 324 324 320 320 323 322 319 318 314 310 310 310 306 305 303 280 199 186 205 207 201 211 220 210 190 180 172 169 171 167 164 169 169 164 167 174 174 179 187 192 191 192 199 205 207 214 229 234 233 236 242 246 245 247 254 256 236 221 233 242 235 226 219 209 208 215 230 234 226 207 209 234 254 278 276 266
342 332 323 320 320 315 315 325 326 321 319 319 317 317 319 319 315 312 311 307 306 307 307 304 305 302 285 239 202 202 201 200 206 202 185 170 170 175 179 181 179 179 180 174 167 172 178 179 187 199 207 207 202 205 211 216 222 234 239 239 236 235 238 238 239 249 254 229 207 218 225 215 207 209 211 211 207 207 218 222 215 221 236 243 249 255 263
340 331 326 328 327 322 319 317 313 312 312 312 312 312 312 312 310 311 313 312 309 306 305 306 308 305 293 269 241 231 223 211 197 187 179 179 186 187 183 183 186 186 180 173 171 176 182 185 195 206 211 209 204 205 213 222 226 228 233 240 241 241 246 245 236 236 246 240 228 230 225 207 199 201 205 209 206 199 207 222 225 226 237 244 248 258 276
341 331 324 322 317 309 306 305 306 307 306 306 309 309 310 312 313 311 311 310 305 305 309 309 307 305 298 260 209 204 203 196 188 182 178 179 186 187 184 181 179 172 165 164 171 176 182 193 204 211 210 206 210 222 227 228 231 233 238 245 249 247 248 249 244 244 245 236 233 236 227 208 206 212 216 223 224 213 206 219 229 236 242 248 260 278 299
330 319 314 311 306 304 303 302 301 302 301 302 305 306 307 309 309 306 306 305 301 301 303 299 296 297 289 240 196 188 192 199 204 200 192 185 180 178 174 171 169 164 161 168 178 178 181 194 204 209 217 222 235 245 229 213 223 239 239 243 253 252 237 227 229 233 231 229 232 235 219 209 223 232 226 224 224 217 207 209 221 238 248 252 262 277 293
322 315 311 308 304 301 299 296 295 295 296 296 298 298 299 300 300 299 299 297 292 292 293 291 287 280 258 227 209 196 201 212 217 209 198 192 188 180 170 165 165 165 168 177 186 184 190 210 211 208 214 228 241 244 231 214 215 231 232 231 251 255 232 218 220 225 230 234 235 225 215 227 239 240 229 223 223 223 216 209 210 227 253 262 268 275 287
318 312 309 308 306 303 299 297 295 294 291 291 291 292 293 294 294 294 293 290 286 286 286 286 283 275 258 243 234 222 209 196 186 185 187 187 184 177 169 164 166 169 172 175 177 180 202 226 224 213 215 235 249 249 240 223 219 231 239 231 222 224 224 228 232 232 233 238 236 220 218 233 240 236 232 232 231 225 220 221 220 223 245 262 272 278 280
310 305 303 303 303 302 300 299 298 295 292 292 291 291 290 290 289 288 286 284 283 283 280 276 277 280 274 240 215 210 205 188 174 174 178 178 176 174 173 171 173 178 181 179 179 193 216 237 240 215 216 232 246 252 243 228 225 233 239 210 195 207 221 230 236 236 232 233 229 215 211 224 232 228 227 231 231 224 220 223 227 222 225 253 274 280 275
304 301 299 297 296 295 295 297 296 292 288 287 287 288 289 289 287 284 280 275 273 273 270 265 263 259 239 183 174 185 191 189 183 179 177 177 180 182 182 180 184 196 206 206 211 224 236 247 238 213 215 228 240 248 251 237 222 218 217 193 211 249 259 239 249 264 252 224 210 209 216 232 241 232 225 231 241 240 229 223 227 233 241 251 257 256 251
301 297 296 296 293 290 289 289 289 290 293 296 297 296 296 295 291 284 275 267 263 257 247 244 240 222 200 178 164 164 166 168 171 171 172 178 187 192 195 200 213 233 245 240 236 235 232 220 203 202 206 210 218 240 259 247 207 190 208 257 252 257 257 248 254 269 262 232 224 234 243 246 243 235 232 238 245 242 234 233 241 254 265 264 253 240 238
296 294 295 296 294 292 291 291 294 298 301 305 305 301 297 298 299 291 273 254 236 199 189 193 190 183 179 169 161 160 158 160 167 174 184 197 203 204 208 219 232 240 230 216 215 211 195 182 190 199 200 205 215 231 253 249 222 217 247 261 253 259 265 256 250 251 247 240 244 255 259 252 242 239 241 244 240 229 224 232 242 247 250 254 255 250 242
295 295 296 297 297 297 296 295 297 299 299 301 303 300 293 293 297 292 266 219 182 161 160 161 162 165 163 157 159 165 170 178 189 201 219 227 223 218 214 210 206 194 190 199 206 203 182 184 197 197 197 214 229 235 242 248 249 252 255 253 254 265 270 260 254 253 246 240 245 255 257 247 239 238 238 236 230 222 220 224 228 229 235 244 249 245 237
299 299 297 294 294 295 295 291 293 299 301 301 301 299 293 289 289 285 242 166 152 153 156 158 165 167 163 163 169 176 185 194 199 204 211 215 216 215 203 191 183 182 198 206 203 186 181 204 213 210 212 229 244 252 259 265 266 261 257 257 260 264 257 247 248 256 254 245 244 253 255 248 243 241 235 227 225 229 231 226 219 218 224 232 236 235 230
304 303 298 292 288 289 290 286 287 299 307 306 300 297 291 280 281 285 243 155 152 157 157 161 173 182 183 188 189 184 185 190 191 188 186 184 181 194 208 208 203 201 204 197 178 173 197 218 223 222 234 250 258 262 267 269 266 264 267 267 265 265 260 253 257 264 262 252 251 259 263 259 256 256 251 242 238 240 237 227 220 220 224 226 228 226 222
312 313 307 300 293 291 290 287 287 297 306 307 302 298 281 242 282 299 294 211 168 179 194 192 196 202 204 206 199 189 187 191 192 189 183 175 170 181 198 207 206 199 187 172 166 189 209 219 223 235 260 275 276 273 271 267 263 269 275 274 273 272 268 264 267 269 262 253 254 262 261 253 252 257 257 250 245 244 239 229 225 228 228 224 221 219 217
323 326 323 312 298 291 293 299 303 306 302 296 304 318 322 301 305 308 307 292 166 215 223 217 219 217 211 208 200 194 193 199 204 202 198 196 200 203 202 198 194 190 184 186 199 211 217 222 230 244 266 293 311 309 284 257 261 274 275 276 283 282 271 266 270 272 264 256 257 260 255 249 250 255 254 248 245 245 241 234 228 226 224 222 221 219 219
338 339 341 331 314 301 290 283 289 300 307 310 316 322 311 295 295 299 298 290 271 225 198 226 249 231 216 208 202 199 199 202 206 207 207 207 210 211 202 187 183 181 175 188 213 222 225 228 235 244 267 315 348 5 290 236 271 290 282 275 283 288 279 274 275 273 265 258 256 255 254 250 248 249 248 247 245 243 238 233 229 223 220 221 223 220 216
352 354 358 353 342 336 323 300 297 308 317 315 308 297 284 280 283 284 284 283 270 226 199 215 229 226 221 214 209 213 220 217 206 199 196 199 204 201 190 187 194 196 192 201 218 224 224 230 239 249 276 315 341 24 124 263 289 295 287 284 291 294 289 282 276 270 264 258 253 252 253 250 246 245 245 244 242 237 232 229 226 222 219 222 224 220 216
24 27 28 20 5 359 359 354 338 325 318 314 308 297 285 280 278 270 265 268 264 246 227 221 222 227 231 223 214 218 229 227 213 202 199 201 204 201 196 200 210 212 207 212 224 231 235 244 249 256 276 302 315 326 119 306 301 292 286 290 291 286 278 272 268 265 263 255 248 247 247 244 241 243 243 240 238 236 232 228 227 226 223 221 222 223 225
39 40 39 39 34 25 21 21 11 354 347 349 347 334 314 295 283 277 277 277 268 251 238 230 226 230 236 235 229 225 224 224 224 222 219 218 217 213 214 220 227 227 221 225 235 241 247 253 254 259 276 296 301 284 279 299 296 287 288 291 286 276 274 275 272 269 267 259 249 246 246 241 239 240 240 238 237 237 233 229 229 229 226 221 220 225 230
40 37 33 34 37 33 30 31 28 16 6 7 10 359 345 335 308 275 265 270 270 258 251 246 240 236 240 247 245 235 229 232 237 239 233 226 218 215 221 228 231 231 234 236 235 238 247 256 260 266 278 285 276 257 273 289 286 280 283 286 282 279 280 281 278 275 269 258 246 242 243 241 239 239 238 235 234 234 232 229 228 229 229 226 223 223 225
30 32 21 19 26 29 22 18 21 19 11 7 10 6 352 340 323 281 252 262 276 273 267 267 263 257 257 259 256 247 243 244 243 241 239 236 229 225 227 229 230 234 242 241 232 235 246 254 259 268 277 271 246 242 266 284 287 285 286 286 285 284 280 273 268 266 262 251 241 238 239 241 241 240 238 237 235 233 233 232 231 230 232 233 229 225 224